Location: Condor
(52.3263°N, 114.5541°W)
Time: 21:30:27
(UTC+00:00)

Oscar 19 - Pass Details

Date: 16 December 2023
Orbit: 771 x 789 km, 98.9° (Epoch: 04 March)

Event Time Altitude Azimuth Distance (km) Brightness Sun altitude
Rises 11:01:45 0° 28° (NNE) 3,285 14.3 -41.2°
Reaches altitude 10° 11:05:04 10° 50° (NE) 2,354 13.7 -40.7°
Maximum altitude 11:08:09 16° 87° (E) 1,978 13.3 -40.3°
Drops below altitude 10° 11:11:14 10° 124° (SE) 2,349 13.5 -39.8°
Sets 11:14:30 0° 146° (SE) 3,274 14.1 -39.3°
